�������l�o���
Date,Time,MP-1(��Sv/h),MP-2(��Sv/h),MP-3(��Sv/h),MP-4(��Sv/h),MP-5(��Sv/h),MP-6(��Sv/h),MP-7(��Sv/h),MP-8(��Sv/h),����,����(m/s),���J
2023/04/23,00:00,0.570,0.840,0.504,1.053,0.745,0.326,0.583,0.551,�k�k��,7.0,��
2023/04/23,00:10,0.569,0.838,0.502,1.051,0.743,0.325,0.583,0.549,�k�k��,7.4,��
2023/04/23,00:20,0.570,0.842,0.503,1.053,0.744,0.325,0.583,0.550,�k�k��,6.5,��
2023/04/23,00:30,0.572,0.839,0.503,1.054,0.742,0.326,0.583,0.549,�k�k��,5.4,��
2023/04/23,00:40,0.571,0.840,0.503,1.056,0.744,0.326,0.583,0.551,�k�k��,6.3,��
2023/04/23,00:50,0.569,0.840,0.502,1.054,0.744,0.326,0.583,0.551,�k�k��,5.8,��
2023/04/23,01:00,0.572,0.839,0.502,1.052,0.743,0.326,0.583,0.552,�k�k��,5.9,��
2023/04/23,01:10,0.569,0.839,0.504,1.053,0.745,0.325,0.582,0.552,�k�k��,6.2,��
2023/04/23,01:20,0.570,0.841,0.503,1.053,0.742,0.326,0.583,0.550,�k�k��,5.5,��
2023/04/23,01:30,0.571,0.840,0.502,1.056,0.744,0.327,0.582,0.550,�k�k��,5.2,��
2023/04/23,01:40,0.569,0.841,0.502,1.054,0.743,0.325,0.583,0.548,�k�k��,5.2,��
2023/04/23,01:50,0.572,0.840,0.503,1.053,0.744,0.326,0.582,0.551,�k�k��,5.2,��
2023/04/23,02:00,0.571,0.838,0.501,1.055,0.744,0.326,0.583,0.549,�k�k��,4.9,��
2023/04/23,02:10,0.569,0.841,0.503,1.052,0.743,0.327,0.582,0.551,�k�k��,5.0,��
2023/04/23,02:20,0.569,0.840,0.503,1.051,0.744,0.324,0.582,0.550,�k�k��,6.7,��
2023/04/23,02:30,0.570,0.839,0.505,1.055,0.743,0.325,0.581,0.548,�k�k��,7.6,��
2023/04/23,02:40,0.571,0.837,0.503,1.051,0.744,0.326,0.583,0.550,�k�k��,8.0,��
2023/04/23,02:50,0.570,0.839,0.501,1.051,0.744,0.326,0.583,0.551,�k�k��,8.1,��
2023/04/23,03:00,0.570,0.840,0.501,1.053,0.743,0.326,0.584,0.550,�k�k��,7.8,��
2023/04/23,03:10,0.570,0.839,0.501,1.054,0.742,0.327,0.582,0.549,�k�k��,6.8,��
2023/04/23,03:20,0.569,0.838,0.502,1.053,0.743,0.326,0.582,0.550,�k,6.9,��
2023/04/23,03:30,0.571,0.840,0.503,1.053,0.746,0.324,0.582,0.550,�k�k��,6.4,��
2023/04/23,03:40,0.570,0.838,0.502,1.053,0.743,0.326,0.584,0.551,�k�k��,8.1,��
2023/04/23,03:50,0.570,0.842,0.502,1.052,0.744,0.325,0.582,0.549,�k�k��,8.1,��
2023/04/23,04:00,0.570,0.839,0.503,1.053,0.743,0.325,0.583,0.548,�k��,8.8,��
2023/04/23,04:10,0.570,0.836,0.502,1.051,0.744,0.327,0.582,0.550,�k�k��,7.5,��
2023/04/23,04:20,0.570,0.838,0.502,1.050,0.744,0.325,0.582,0.550,�k��,7.9,��
2023/04/23,04:30,0.570,0.839,0.501,1.055,0.743,0.326,0.582,0.550,�k�k��,7.9,��
2023/04/23,04:40,0.568,0.840,0.502,1.051,0.744,0.326,0.584,0.551,�k�k��,6.4,��
2023/04/23,04:50,0.568,0.841,0.501,1.053,0.743,0.325,0.582,0.551,�k�k��,5.1,��
2023/04/23,05:00,0.570,0.840,0.501,1.051,0.744,0.326,0.583,0.550,�k�k��,4.0,��
2023/04/23,05:10,0.570,0.839,0.501,1.051,0.741,0.325,0.582,0.549,�k�k��,3.4,��
2023/04/23,05:20,0.570,0.838,0.502,1.051,0.742,0.326,0.583,0.550,�k��,5.4,��
2023/04/23,05:30,0.569,0.838,0.504,1.054,0.743,0.324,0.582,0.551,�k��,5.3,��
2023/04/23,05:40,0.570,0.840,0.502,1.052,0.743,0.325,0.582,0.549,���k��,6.8,��
2023/04/23,05:50,0.568,0.837,0.502,1.049,0.744,0.324,0.582,0.551,�k��,6.6,��
2023/04/23,06:00,0.568,0.841,0.503,1.050,0.743,0.325,0.582,0.551,�k��,8.0,��
2023/04/23,06:10,0.570,0.838,0.502,1.052,0.743,0.326,0.583,0.549,�k��,9.1,��
2023/04/23,06:20,0.571,0.841,0.502,1.051,0.743,0.324,0.583,0.549,�k��,9.2,��
2023/04/23,06:30,0.569,0.840,0.502,1.051,0.742,0.324,0.584,0.551,�k��,6.8,��
2023/04/23,06:40,0.570,0.839,0.502,1.052,0.744,0.325,0.582,0.551,���k��,7.3,��
2023/04/23,06:50,0.569,0.841,0.502,1.053,0.743,0.327,0.582,0.551,���k��,6.4,��
2023/04/23,07:00,0.569,0.840,0.502,1.052,0.742,0.326,0.584,0.550,�k��,3.6,��
2023/04/23,07:10,0.569,0.840,0.502,1.055,0.745,0.326,0.584,0.550,�k��,3.4,��
2023/04/23,07:20,0.570,0.840,0.500,1.056,0.745,0.324,0.584,0.550,���k��,4.8,��
2023/04/23,07:30,0.570,0.838,0.503,1.052,0.745,0.324,0.584,0.549,���k��,5.1,��
2023/04/23,07:40,0.570,0.838,0.502,1.051,0.744,0.324,0.583,0.550,�k��,7.6,��
2023/04/23,07:50,0.568,0.839,0.502,1.054,0.744,0.325,0.584,0.549,�k��,6.4,��
2023/04/23,08:00,0.572,0.838,0.503,1.053,0.745,0.325,0.583,0.551,�k��,8.2,��
2023/04/23,08:10,0.571,0.838,0.504,1.054,0.745,0.324,0.584,0.550,�k��,7.2,��
2023/04/23,08:20,0.572,0.838,0.504,1.055,0.746,0.324,0.582,0.551,�k��,8.6,��
2023/04/23,08:30,0.571,0.836,0.504,1.054,0.743,0.325,0.583,0.550,�k��,7.1,��
2023/04/23,08:40,0.571,0.837,0.502,1.054,0.743,0.324,0.582,0.550,�k��,6.3,��
2023/04/23,08:50,0.572,0.838,0.502,1.053,0.743,0.325,0.583,0.549,�k��,5.7,��
2023/04/23,09:00,0.571,0.838,0.502,1.051,0.744,0.325,0.581,0.549,�k�k��,5.4,��
2023/04/23,09:10,0.572,0.838,0.502,1.053,0.745,0.325,0.581,0.549,�k��,6.6,��
2023/04/23,09:20,0.572,0.839,0.504,1.053,0.745,0.326,0.579,0.549,���k��,7.0,��
2023/04/23,09:30,0.571,0.837,0.505,1.054,0.743,0.325,0.582,0.548,���k��,7.3,��
2023/04/23,09:40,0.570,0.840,0.504,1.053,0.745,0.324,0.583,0.548,�k��,6.7,��
2023/04/23,09:50,0.569,0.838,0.503,1.056,0.746,0.325,0.581,0.550,�k��,6.1,��
2023/04/23,10:00,0.570,0.840,0.505,1.055,0.744,0.325,0.582,0.551,���k��,5.8,��
2023/04/23,10:10,0.571,0.838,0.503,1.055,0.744,0.324,0.582,0.548,�k��,5.9,��
2023/04/23,10:20,0.571,0.840,0.503,1.055,0.745,0.325,0.582,0.549,�k�k��,8.4,��
2023/04/23,10:30,0.570,0.843,0.505,1.056,0.745,0.324,0.582,0.548,���k��,6.1,��
2023/04/23,10:40,0.570,0.842,0.505,1.055,0.744,0.325,0.583,0.550,�k��,6.1,��
2023/04/23,10:50,0.571,0.841,0.504,1.056,0.745,0.326,0.581,0.550,�k��,5.7,��
2023/04/23,11:00,0.572,0.839,0.503,1.054,0.744,0.326,0.581,0.551,���k��,6.9,��
2023/04/23,11:10,0.570,0.839,0.503,1.056,0.744,0.326,0.582,0.550,�k��,6.6,��
2023/04/23,11:20,0.572,0.841,0.503,1.056,0.745,0.327,0.582,0.550,�k��,9.3,��
2023/04/23,11:30,0.573,0.841,0.503,1.056,0.743,0.324,0.582,0.550,�k��,8.1,��
2023/04/23,11:40,0.572,0.841,0.505,1.058,0.746,0.326,0.582,0.549,�k��,6.7,��
2023/04/23,11:50,0.573,0.841,0.502,1.055,0.744,0.325,0.581,0.550,�k��,8.0,��
2023/04/23,12:00,0.574,0.840,0.502,1.054,0.744,0.326,0.582,0.551,�k��,6.9,��
2023/04/23,12:10,0.572,0.842,0.504,1.052,0.745,0.326,0.584,0.551,�k��,6.5,��
2023/04/23,12:20,0.572,0.840,0.502,1.054,0.744,0.326,0.583,0.551,���k��,10.2,��
2023/04/23,12:30,0.574,0.842,0.502,1.055,0.745,0.326,0.583,0.550,���k��,7.5,��
2023/04/23,12:40,0.574,0.842,0.503,1.059,0.746,0.326,0.583,0.550,�k��,9.0,��
2023/04/23,12:50,0.573,0.841,0.502,1.057,0.746,0.325,0.583,0.551,�k��,6.2,��
2023/04/23,13:00,0.573,0.843,0.504,1.054,0.747,0.327,0.584,0.551,�k��,6.7,��
2023/04/23,13:10,0.572,0.841,0.504,1.057,0.748,0.325,0.583,0.549,���k��,5.1,��
2023/04/23,13:20,0.574,0.844,0.503,1.059,0.746,0.327,0.583,0.551,�k��,6.5,��
2023/04/23,13:30,0.574,0.843,0.505,1.059,0.746,0.327,0.583,0.550,�k��,5.0,��
2023/04/23,13:40,0.574,0.841,0.504,1.058,0.746,0.328,0.584,0.551,�k,2.5,��
2023/04/23,13:50,0.572,0.842,0.504,1.058,0.745,0.325,0.583,0.551,�k��,5.7,��
2023/04/23,14:00,0.574,0.841,0.503,1.056,0.746,0.327,0.583,0.552,���쓌,1.2,��
2023/04/23,14:10,0.572,0.842,0.502,1.059,0.744,0.324,0.583,0.551,��쓌,5.8,��
2023/04/23,14:20,0.571,0.843,0.504,1.059,0.747,0.325,0.583,0.550,�쓌,4.5,��
2023/04/23,14:30,0.572,0.844,0.503,1.057,0.746,0.325,0.582,0.550,��쓌,4.7,��
2023/04/23,14:40,0.572,0.841,0.503,1.058,0.747,0.327,0.582,0.549,��쓌,7.1,��
2023/04/23,14:50,0.573,0.842,0.505,1.058,0.746,0.325,0.582,0.550,��쓌,6.5,��
2023/04/23,15:00,0.572,0.843,0.504,1.057,0.747,0.326,0.582,0.549,��쓌,7.3,��
2023/04/23,15:10,0.572,0.842,0.503,1.058,0.747,0.327,0.582,0.551,��쓌,8.1,��
2023/04/23,15:20,0.574,0.842,0.502,1.059,0.745,0.326,0.582,0.549,��쓌,6.1,��
2023/04/23,15:30,0.572,0.840,0.504,1.057,0.746,0.326,0.584,0.548,��쓌,5.5,��
2023/04/23,15:40,0.575,0.841,0.503,1.056,0.745,0.327,0.583,0.549,��쓌,6.0,��
2023/04/23,15:50,0.572,0.842,0.502,1.056,0.745,0.327,0.584,0.550,��쓌,6.0,��
2023/04/23,16:00,0.572,0.841,0.503,1.059,0.747,0.328,0.584,0.549,��쓌,5.4,��
2023/04/23,16:10,0.575,0.841,0.503,1.056,0.745,0.327,0.583,0.548,��쓌,7.4,��
2023/04/23,16:20,0.571,0.845,0.504,1.056,0.747,0.328,0.582,0.548,��쓌,5.9,��
2023/04/23,16:30,0.572,0.842,0.503,1.056,0.747,0.328,0.583,0.551,��쓌,7.3,��
2023/04/23,16:40,0.573,0.844,0.504,1.056,0.746,0.328,0.584,0.550,��쓌,7.2,��
2023/04/23,16:50,0.573,0.844,0.503,1.058,0.745,0.327,0.583,0.550,��쓌,6.8,��
2023/04/23,17:00,0.572,0.844,0.503,1.057,0.746,0.327,0.584,0.550,��,6.8,��
2023/04/23,17:10,0.573,0.844,0.504,1.059,0.745,0.327,0.583,0.551,��쓌,6.3,��
2023/04/23,17:20,0.573,0.842,0.503,1.056,0.746,0.327,0.583,0.551,��,6.2,��
2023/04/23,17:30,0.573,0.845,0.504,1.055,0.745,0.328,0.583,0.553,��,5.7,��
2023/04/23,17:40,0.574,0.842,0.505,1.057,0.746,0.326,0.584,0.553,��,3.8,��
2023/04/23,17:50,0.576,0.843,0.503,1.056,0.747,0.327,0.583,0.551,���쐼,3.1,��
2023/04/23,18:00,0.574,0.844,0.504,1.056,0.747,0.328,0.582,0.551,���k��,5.6,��
2023/04/23,18:10,0.574,0.845,0.505,1.058,0.749,0.327,0.585,0.551,��,7.9,��
2023/04/23,18:20,0.575,0.843,0.506,1.057,0.748,0.328,0.582,0.552,��,7.2,��
2023/04/23,18:30,0.573,0.843,0.505,1.057,0.748,0.327,0.584,0.551,��,7.8,��
2023/04/23,18:40,0.574,0.844,0.505,1.058,0.749,0.328,0.585,0.552,��,7.9,��
2023/04/23,18:50,0.572,0.843,0.505,1.056,0.748,0.326,0.584,0.552,��,8.8,��
2023/04/23,19:00,0.574,0.843,0.505,1.058,0.748,0.327,0.584,0.551,��,8.9,��
2023/04/23,19:10,0.572,0.845,0.504,1.059,0.747,0.327,0.583,0.553,���k��,10.2,��
2023/04/23,19:20,0.574,0.845,0.504,1.058,0.748,0.327,0.585,0.551,��,8.5,��
2023/04/23,19:30,0.576,0.844,0.504,1.058,0.746,0.327,0.585,0.550,��,9.2,��
2023/04/23,19:40,0.576,0.844,0.505,1.059,0.745,0.328,0.584,0.553,��,10.0,��
2023/04/23,19:50,0.573,0.843,0.504,1.058,0.747,0.327,0.584,0.553,��,10.5,��
2023/04/23,20:00,0.574,0.844,0.503,1.058,0.748,0.327,0.585,0.553,��,7.8,��
2023/04/23,20:10,0.573,0.843,0.504,1.060,0.749,0.328,0.584,0.552,���k��,8.9,��
2023/04/23,20:20,0.574,0.844,0.506,1.057,0.747,0.327,0.586,0.552,��,8.9,��
2023/04/23,20:30,0.573,0.844,0.504,1.058,0.747,0.327,0.585,0.551,��,8.4,��
2023/04/23,20:40,0.574,0.845,0.505,1.057,0.748,0.327,0.584,0.553,��,8.4,��
2023/04/23,20:50,0.573,0.844,0.507,1.058,0.750,0.326,0.585,0.551,��,9.4,��
2023/04/23,21:00,0.574,0.846,0.504,1.056,0.745,0.325,0.585,0.553,��,9.1,��
2023/04/23,21:10,0.575,0.843,0.505,1.057,0.748,0.326,0.584,0.551,��,8.9,��
2023/04/23,21:20,0.573,0.844,0.503,1.058,0.749,0.327,0.585,0.552,��,9.2,��
2023/04/23,21:30,0.573,0.844,0.506,1.059,0.747,0.326,0.584,0.552,���쐼,8.2,��
2023/04/23,21:40,0.573,0.843,0.505,1.058,0.748,0.325,0.586,0.552,��,7.7,��
2023/04/23,21:50,0.573,0.845,0.505,1.058,0.750,0.328,0.585,0.552,��,8.2,��
2023/04/23,22:00,0.573,0.845,0.504,1.058,0.750,0.326,0.584,0.551,���k��,8.9,��
2023/04/23,22:10,0.573,0.844,0.503,1.060,0.748,0.327,0.585,0.551,���k��,8.2,��
2023/04/23,22:20,0.572,0.844,0.504,1.058,0.748,0.326,0.584,0.551,���k��,7.3,��
2023/04/23,22:30,0.574,0.844,0.505,1.058,0.748,0.326,0.584,0.551,���k��,7.9,��
2023/04/23,22:40,0.573,0.845,0.505,1.060,0.746,0.325,0.583,0.551,���k��,7.7,��
2023/04/23,22:50,0.573,0.845,0.505,1.058,0.748,0.327,0.583,0.553,���k��,7.7,��
2023/04/23,23:00,0.574,0.844,0.506,1.060,0.747,0.325,0.583,0.553,���k��,7.7,��
2023/04/23,23:10,0.573,0.843,0.504,1.059,0.747,0.327,0.584,0.552,�k��,9.2,��
2023/04/23,23:20,0.573,0.844,0.504,1.058,0.747,0.326,0.584,0.552,�k��,10.2,��
2023/04/23,23:30,0.573,0.844,0.505,1.057,0.748,0.326,0.583,0.553,�k��,12.7,��
2023/04/23,23:40,0.573,0.843,0.505,1.061,0.749,0.326,0.583,0.552,�k��,11.4,��
2023/04/23,23:50,0.572,0.842,0.505,1.057,0.749,0.325,0.581,0.552,�k��,9.2,��
